timestamp,wind_dir_avg,wind_spd_avg,wind_spd_max_dir,wind_spd_gust,battery_voltage,lat,long
2021-11-17 00:04:01+00:00,245.0,15.23,244.0,18.19,12.57,47.59359,-54.27349
2021-11-17 00:14:00+00:00,250.0,13.97,250.0,15.64,12.57,47.59359,-54.27349
2021-11-17 00:24:00+00:00,254.0,14.99,255.0,17.68,12.57,47.59359,-54.27349
2021-11-17 00:34:00+00:00,249.0,14.93,253.0,17.96,12.57,47.59359,-54.27349
2021-11-17 00:44:00+00:00,244.0,13.93,249.0,15.49,12.57,47.59359,-54.27349
2021-11-17 00:54:00+00:00,250.0,13.42,244.0,15.44,12.57,47.59359,-54.27349
2021-11-17 01:04:00+00:00,246.0,13.98,246.0,15.54,12.57,47.59359,-54.27349
2021-11-17 01:14:01+00:00,244.0,14.4,245.0,16.14,12.57,47.59359,-54.27349
2021-11-17 01:24:01+00:00,246.0,13.76,241.0,15.69,12.57,47.59359,-54.27349
2021-11-17 01:34:01+00:00,242.0,13.95,233.0,16.79,12.57,47.59359,-54.27349
2021-11-17 01:44:01+00:00,243.0,14.92,239.0,16.61,12.57,47.59359,-54.27349
2021-11-17 01:54:01+00:00,249.0,13.78,247.0,15.15,12.57,47.59359,-54.27349
2021-11-17 02:04:01+00:00,253.0,14.35,253.0,16.06,12.57,47.59359,-54.27349
2021-11-17 02:14:00+00:00,252.0,13.3,250.0,15.26,12.57,47.59359,-54.27349
2021-11-17 02:24:00+00:00,249.0,13.99,252.0,15.9,12.57,47.59359,-54.27349
2021-11-17 02:34:00+00:00,250.0,13.98,256.0,16.71,12.57,47.59359,-54.27349
2021-11-17 02:44:00+00:00,250.0,14.81,254.0,16.62,12.57,47.59359,-54.27349
2021-11-17 02:54:00+00:00,252.0,13.37,253.0,14.95,12.57,47.59359,-54.27349
2021-11-17 03:04:00+00:00,240.0,14.36,235.0,15.63,12.57,47.59359,-54.27349
2021-11-17 03:14:00+00:00,238.0,13.22,236.0,14.16,12.57,47.59359,-54.27349
2021-11-17 03:24:00+00:00,241.0,14.4,247.0,15.8,12.57,47.59359,-54.27349
2021-11-17 03:34:00+00:00,242.0,13.8,244.0,15.44,12.57,47.59359,-54.27349
2021-11-17 03:44:00+00:00,248.0,12.42,253.0,14.29,12.57,47.59359,-54.27349
2021-11-17 03:54:00+00:00,244.0,12.67,244.0,15.14,12.57,47.59359,-54.27349
2021-11-17 04:04:00+00:00,246.0,13.36,250.0,15.2,12.57,47.59359,-54.27349
2021-11-17 04:14:01+00:00,242.0,13.76,243.0,15.22,12.49,47.59359,-54.27349
2021-11-17 04:24:01+00:00,245.0,13.11,256.0,14.92,12.49,47.59359,-54.27349
2021-11-17 04:34:01+00:00,232.0,11.49,236.0,13.51,12.49,47.59359,-54.27349
2021-11-17 04:44:01+00:00,234.0,12.53,239.0,15.3,12.49,47.59359,-54.27349
2021-11-17 04:54:01+00:00,233.0,12.0,249.0,14.61,12.49,47.59359,-54.27349
2021-11-17 05:04:01+00:00,240.0,11.7,248.0,15.01,12.49,47.59359,-54.27349
2021-11-17 05:14:01+00:00,240.0,13.06,241.0,14.66,12.49,47.59359,-54.27349
2021-11-17 05:24:01+00:00,249.0,12.86,250.0,14.87,12.49,47.59359,-54.27349
2021-11-17 05:34:01+00:00,247.0,13.2,251.0,14.99,12.49,47.59359,-54.27349
2021-11-17 05:44:01+00:00,245.0,12.62,250.0,14.68,12.49,47.59359,-54.27349
2021-11-17 05:54:01+00:00,250.0,11.45,257.0,14.32,12.49,47.59359,-54.27349
2021-11-17 06:04:01+00:00,250.0,12.46,251.0,14.41,12.49,47.59359,-54.27349
2021-11-17 06:14:00+00:00,243.0,14.57,243.0,16.96,12.49,47.59359,-54.27349
2021-11-17 06:24:00+00:00,241.0,12.21,239.0,14.05,12.49,47.59359,-54.27349
2021-11-17 06:34:00+00:00,254.0,12.77,253.0,14.73,12.49,47.59359,-54.27349
2021-11-17 06:44:00+00:00,252.0,13.76,256.0,18.4,12.49,47.59359,-54.27349
2021-11-17 06:54:00+00:00,253.0,12.17,250.0,14.54,12.49,47.59359,-54.27349
2021-11-17 07:04:00+00:00,242.0,13.31,245.0,15.34,12.49,47.59359,-54.27349
2021-11-17 07:14:00+00:00,245.0,9.68,246.0,11.56,12.49,47.59359,-54.27349
2021-11-17 07:24:00+00:00,246.0,9.93,247.0,11.59,12.49,47.59359,-54.27349
2021-11-17 07:34:00+00:00,256.0,9.31,253.0,10.66,12.49,47.59359,-54.27349
2021-11-17 07:44:00+00:00,250.0,9.05,257.0,13.04,12.49,47.59359,-54.27349
2021-11-17 07:54:00+00:00,249.0,10.51,251.0,12.4,12.49,47.59359,-54.27349
2021-11-17 08:04:00+00:00,244.0,11.29,238.0,12.88,12.49,47.59359,-54.27349
2021-11-17 08:14:01+00:00,253.0,10.56,258.0,12.08,12.41,47.59359,-54.27349
2021-11-17 08:24:01+00:00,244.0,10.74,254.0,12.8,12.41,47.59359,-54.27349
2021-11-17 08:34:01+00:00,248.0,10.59,256.0,13.84,12.41,47.59359,-54.27349
2021-11-17 08:44:01+00:00,250.0,12.08,253.0,13.73,12.41,47.59359,-54.27349
2021-11-17 08:54:01+00:00,253.0,12.4,254.0,13.99,12.41,47.59359,-54.27349
2021-11-17 09:04:01+00:00,251.0,12.53,252.0,14.43,12.41,47.59359,-54.27349
2021-11-17 09:14:00+00:00,249.0,11.54,249.0,13.94,12.41,47.59359,-54.27349
2021-11-17 09:24:00+00:00,247.0,10.26,252.0,12.84,12.41,47.59359,-54.27349
2021-11-17 09:34:00+00:00,239.0,11.96,237.0,14.62,12.41,47.59359,-54.27349
2021-11-17 09:44:00+00:00,241.0,11.83,243.0,14.67,12.41,47.59359,-54.27349
2021-11-17 09:54:00+00:00,241.0,12.09,244.0,14.12,12.41,47.59359,-54.27349
2021-11-17 10:04:00+00:00,234.0,11.14,230.0,12.88,12.41,47.59359,-54.27349
2021-11-17 10:14:01+00:00,238.0,12.19,242.0,14.61,12.41,47.59359,-54.27349
2021-11-17 10:24:01+00:00,243.0,11.34,247.0,12.54,12.41,47.59359,-54.27349
2021-11-17 10:34:01+00:00,239.0,11.76,241.0,13.25,12.41,47.59359,-54.27349
2021-11-17 10:44:01+00:00,243.0,10.88,243.0,12.88,12.41,47.59359,-54.27349
2021-11-17 10:54:01+00:00,243.0,10.59,238.0,14.41,12.41,47.59359,-54.27349
2021-11-17 11:04:01+00:00,245.0,10.82,244.0,12.39,12.41,47.59359,-54.27349
2021-11-17 11:14:00+00:00,246.0,10.89,247.0,12.55,12.41,47.59359,-54.27349
2021-11-17 11:24:00+00:00,233.0,11.21,235.0,13.05,12.41,47.59359,-54.27349
2021-11-17 11:34:00+00:00,236.0,11.82,236.0,13.84,12.41,47.59359,-54.27349
2021-11-17 11:44:00+00:00,250.0,12.46,249.0,14.2,12.41,47.59359,-54.27349
2021-11-17 11:54:00+00:00,252.0,11.09,254.0,12.85,12.41,47.59359,-54.27349
2021-11-17 12:04:00+00:00,237.0,11.0,235.0,12.96,12.41,47.59359,-54.27349
2021-11-17 12:14:00+00:00,240.0,9.46,233.0,11.03,12.81,47.59359,-54.27349
2021-11-17 12:24:00+00:00,241.0,9.82,240.0,10.98,12.81,47.59359,-54.27349
2021-11-17 12:34:00+00:00,249.0,9.01,254.0,10.86,12.81,47.59359,-54.27349
2021-11-17 12:44:00+00:00,243.0,11.19,242.0,13.03,12.81,47.59359,-54.27349
2021-11-17 12:54:00+00:00,240.0,8.62,238.0,9.64,12.81,47.59359,-54.27349
2021-11-17 13:04:00+00:00,250.0,8.67,254.0,10.08,12.81,47.59359,-54.27349
2021-11-17 13:14:00+00:00,244.0,9.52,246.0,10.86,13.68,47.59359,-54.27349
2021-11-17 13:24:00+00:00,250.0,8.43,252.0,11.22,13.68,47.59359,-54.27349
2021-11-17 13:34:00+00:00,269.0,7.85,273.0,8.5,13.68,47.59359,-54.27349
2021-11-17 13:44:00+00:00,268.0,7.59,267.0,8.83,13.68,47.59359,-54.27349
2021-11-17 13:54:00+00:00,282.0,7.43,288.0,9.19,13.68,47.59359,-54.27349
2021-11-17 14:04:00+00:00,298.0,7.42,301.0,8.55,13.68,47.59359,-54.27349
2021-11-17 14:14:01+00:00,304.0,8.54,308.0,9.66,13.68,47.59359,-54.27349
2021-11-17 14:24:01+00:00,292.0,9.31,290.0,10.55,13.68,47.59359,-54.27349
2021-11-17 14:34:01+00:00,306.0,9.97,304.0,13.56,13.68,47.59359,-54.27349
2021-11-17 14:44:01+00:00,308.0,9.99,308.0,11.71,13.68,47.59359,-54.27349
2021-11-17 14:54:01+00:00,323.0,10.03,324.0,10.98,13.68,47.59359,-54.27349
2021-11-17 15:04:01+00:00,306.0,8.32,310.0,9.81,13.68,47.59359,-54.27349
2021-11-17 15:14:01+00:00,317.0,7.19,321.0,8.36,14.08,47.59359,-54.27349
2021-11-17 15:24:01+00:00,311.0,9.48,319.0,10.62,14.08,47.59359,-54.27349
2021-11-17 15:34:01+00:00,331.0,9.63,328.0,11.48,14.08,47.59359,-54.27349
2021-11-17 15:44:01+00:00,308.0,8.35,320.0,9.68,14.08,47.59359,-54.27349
2021-11-17 15:54:01+00:00,316.0,7.11,312.0,8.64,14.08,47.59359,-54.27349
2021-11-17 16:04:01+00:00,304.0,5.98,305.0,7.05,14.08,47.59359,-54.27349
2021-11-17 16:14:00+00:00,327.0,8.4,324.0,10.47,13.6,47.59359,-54.27349
2021-11-17 16:24:00+00:00,318.0,9.91,321.0,11.5,13.6,47.59359,-54.27349
2021-11-17 16:34:00+00:00,305.0,8.42,306.0,10.28,13.6,47.59359,-54.27349
2021-11-17 16:44:00+00:00,342.0,9.4,339.0,11.25,13.6,47.59359,-54.27349
2021-11-17 16:54:00+00:00,330.0,11.4,335.0,13.45,13.6,47.59359,-54.27349
2021-11-17 17:04:00+00:00,336.0,12.97,328.0,15.5,13.6,47.59359,-54.27349
2021-11-17 17:14:01+00:00,333.0,9.47,326.0,12.29,13.68,47.59359,-54.27349
2021-11-17 17:24:01+00:00,317.0,8.21,312.0,10.29,13.68,47.59359,-54.27349
2021-11-17 17:34:01+00:00,329.0,7.41,335.0,9.86,13.68,47.59359,-54.27349
2021-11-17 17:44:01+00:00,326.0,11.32,327.0,13.34,13.68,47.59359,-54.27349
2021-11-17 17:54:01+00:00,348.0,9.92,357.0,11.34,13.68,47.59359,-54.27349
2021-11-17 18:04:01+00:00,355.0,10.61,356.0,11.97,13.68,47.59359,-54.27349
2021-11-17 18:14:01+00:00,349.0,9.67,355.0,10.87,13.92,47.59359,-54.27349
2021-11-17 18:24:01+00:00,338.0,9.21,342.0,10.76,13.92,47.59359,-54.27349
2021-11-17 18:34:01+00:00,347.0,11.58,352.0,14.38,13.92,47.59359,-54.27349
2021-11-17 18:44:01+00:00,346.0,9.47,340.0,11.18,13.92,47.59359,-54.27349
2021-11-17 18:54:01+00:00,332.0,8.95,325.0,10.49,13.92,47.59359,-54.27349
2021-11-17 19:04:01+00:00,339.0,8.79,340.0,10.56,13.92,47.59359,-54.27349
2021-11-17 19:14:01+00:00,324.0,8.7,322.0,9.59,13.29,47.59359,-54.27349
2021-11-17 19:24:01+00:00,332.0,10.02,330.0,12.49,13.29,47.59359,-54.27349
2021-11-17 19:34:01+00:00,349.0,9.53,344.0,10.64,13.29,47.59359,-54.27349
2021-11-17 19:44:01+00:00,345.0,9.65,346.0,11.2,13.29,47.59359,-54.27349
2021-11-17 19:54:01+00:00,334.0,10.6,321.0,13.28,13.29,47.59359,-54.27349
2021-11-17 20:04:01+00:00,342.0,9.97,344.0,11.76,13.29,47.59359,-54.27349
2021-11-17 20:14:01+00:00,339.0,9.91,329.0,12.0,12.73,47.59359,-54.27349
2021-11-17 20:24:01+00:00,346.0,11.0,355.0,13.2,12.73,47.59359,-54.27349
2021-11-17 20:34:01+00:00,347.0,9.37,339.0,11.04,12.73,47.59359,-54.27349
2021-11-17 20:44:01+00:00,346.0,8.91,349.0,10.15,12.73,47.59359,-54.27349
2021-11-17 20:54:01+00:00,354.0,10.21,352.0,12.18,12.73,47.59359,-54.27349
2021-11-17 21:04:01+00:00,341.0,8.86,347.0,9.9,12.73,47.59359,-54.27349
2021-11-17 21:14:01+00:00,334.0,9.04,344.0,10.65,12.65,47.59359,-54.27349
2021-11-17 21:24:01+00:00,353.0,9.27,357.0,10.78,12.65,47.59359,-54.27349
2021-11-17 21:34:01+00:00,347.0,8.22,349.0,9.02,12.65,47.59359,-54.27349
2021-11-17 21:44:01+00:00,344.0,8.69,347.0,10.52,12.65,47.59359,-54.27349
2021-11-17 21:54:01+00:00,342.0,8.04,345.0,9.08,12.65,47.59359,-54.27349
2021-11-17 22:04:01+00:00,342.0,7.25,356.0,8.74,12.65,47.59359,-54.27349
2021-11-17 22:14:01+00:00,342.0,9.19,342.0,10.38,12.57,47.59359,-54.27349
2021-11-17 22:24:01+00:00,344.0,8.93,344.0,10.53,12.57,47.59359,-54.27349
2021-11-17 22:34:01+00:00,351.0,8.22,353.0,9.9,12.57,47.59359,-54.27349
2021-11-17 22:44:01+00:00,350.0,9.16,347.0,11.05,12.57,47.59359,-54.27349
2021-11-17 22:54:01+00:00,346.0,8.97,345.0,10.52,12.57,47.59359,-54.27349
2021-11-17 23:04:01+00:00,345.0,8.7,345.0,9.36,12.57,47.59359,-54.27349
2021-11-17 23:14:01+00:00,334.0,10.77,323.0,14.3,12.57,47.59359,-54.27349
2021-11-17 23:24:01+00:00,354.0,9.12,359.0,10.42,12.57,47.59359,-54.27349
2021-11-17 23:34:01+00:00,331.0,9.78,314.0,11.65,12.57,47.59359,-54.27349
2021-11-17 23:44:01+00:00,349.0,9.44,349.0,10.32,12.57,47.59359,-54.27349
2021-11-17 23:54:01+00:00,340.0,9.69,341.0,11.67,12.57,47.59359,-54.27349
